| time (UTC) | temp C | wind direction | speed KPH | gust KPH | rain 1hr cm | rain 24hr cm | rain mn cm | humidity % | barometer mb |
| 20260506193038 | 17 | 0 | 1.6 | 11.3 | 0.00 | 0.20 | 0.20 | 86 | 1006.8 |
| 20260506192521 | 17 | 234 | 4.8 | 16.1 | 0.00 | 0.20 | 0.20 | 86 | 1006.8 |
| 20260506192021 | 17 | 217 | 4.8 | 16.1 | 0.00 | 0.20 | 0.20 | 86 | 1006.9 |
| 20260506191537 | 17 | 228 | 1.6 | 12.9 | 0.00 | 0.20 | 0.20 | 86 | 1006.9 |
| 20260506191022 | 17 | 0 | 3.2 | 11.3 | 0.00 | 0.20 | 0.20 | 86 | 1006.9 |
| 20260506190524 | 17 | 219 | 1.6 | 9.7 | 0.00 | 0.20 | 0.20 | 85 | 1006.9 |
| 20260506190037 | 17 | 213 | 1.6 | 9.7 | 0.00 | 0.20 | 0.20 | 85 | 1006.9 |
| 20260506185523 | 17 | 190 | 0.0 | 4.8 | 0.00 | 0.20 | 0.20 | 85 | 1006.9 |
| 20260506185024 | 17 | 0 | 0.0 | 4.8 | 0.00 | 0.20 | 0.20 | 85 | 1006.9 |
| 20260506184549 | 17 | 0 | 0.0 | 11.3 | 0.00 | 0.20 | 0.20 | 85 | 1007.0 |
| 20260506184024 | 17 | 0 | 0.0 | 11.3 | 0.00 | 0.20 | 0.20 | 85 | 1006.9 |
| 20260506183522 | 17 | 159 | 0.0 | 11.3 | 0.00 | 0.20 | 0.20 | 85 | 1007.0 |
| 20260506183043 | 17 | 0 | 1.6 | 11.3 | 0.00 | 0.20 | 0.20 | 85 | 1006.9 |
| 20260506182521 | 17 | 0 | 0.0 | 14.5 | 0.00 | 0.20 | 0.20 | 85 | 1007.1 |
| 20260506182022 | 17 | 0 | 3.2 | 14.5 | 0.00 | 0.20 | 0.20 | 85 | 1007.0 |
| 20260506181544 | 18 | 244 | 3.2 | 14.5 | 0.00 | 0.20 | 0.20 | 85 | 1007.1 |
| 20260506181023 | 18 | 0 | 0.0 | 8.0 | 0.03 | 0.20 | 0.20 | 85 | 1007.0 |
| 20260506180523 | 18 | 155 | 0.0 | 8.0 | 0.03 | 0.20 | 0.20 | 84 | 1007.0 |
| 20260506180048 | 18 | 208 | 1.6 | 8.0 | 0.03 | 0.20 | 0.20 | 84 | 1007.1 |
| 20260506175522 | 18 | 208 | 0.0 | 8.0 | 0.05 | 0.20 | 0.20 | 84 | 1007.2 |
| 20260506175024 | 18 | 0 | 0.0 | 8.0 | 0.05 | 0.20 | 0.20 | 84 | 1007.3 |
| 20260506174537 | 18 | 0 | 0.0 | 8.0 | 0.05 | 0.20 | 0.20 | 84 | 1007.4 |
| 20260506174022 | 18 | 232 | 1.6 | 8.0 | 0.05 | 0.20 | 0.20 | 84 | 1007.5 |
| 20260506173522 | 18 | 232 | 1.6 | 9.7 | 0.05 | 0.20 | 0.20 | 84 | 1007.4 |
| 20260506173041 | 18 | 0 | 0.0 | 9.7 | 0.08 | 0.20 | 0.20 | 84 | 1007.5 |
| 20260506172521 | 18 | 0 | 0.0 | 9.7 | 0.10 | 0.20 | 0.20 | 84 | 1007.3 |
| 20260506172021 | 18 | 160 | 1.6 | 9.7 | 0.10 | 0.20 | 0.20 | 83 | 1007.4 |
| 20260506171545 | 18 | 213 | 1.6 | 9.7 | 0.13 | 0.20 | 0.20 | 83 | 1007.3 |
| 20260506171021 | 18 | 216 | 1.6 | 9.7 | 0.10 | 0.18 | 0.18 | 83 | 1007.2 |
| 20260506170523 | 18 | 0 | 0.0 | 8.0 | 0.13 | 0.18 | 0.18 | 82 | 1007.3 |
| 20260506170043 | 18 | 0 | 1.6 | 8.0 | 0.15 | 0.18 | 0.18 | 82 | 1007.3 |
| 20260506165523 | 18 | 0 | 0.0 | 8.0 | 0.15 | 0.15 | 0.15 | 82 | 1007.3 |
| 20260506165022 | 18 | 0 | 0.0 | 8.0 | 0.15 | 0.15 | 0.15 | 82 | 1007.4 |
| 20260506164538 | 18 | 0 | 0.0 | 3.2 | 0.15 | 0.15 | 0.15 | 81 | 1007.6 |
| 20260506164023 | 18 | 0 | 0.0 | 3.2 | 0.15 | 0.15 | 0.15 | 81 | 1007.9 |
| 20260506163521 | 18 | 0 | 0.0 | 3.2 | 0.13 | 0.13 | 0.13 | 80 | 1008.0 |
| 20260506163039 | 18 | 0 | 0.0 | 3.2 | 0.13 | 0.13 | 0.13 | 80 | 1008.2 |
| 20260506162521 | 18 | 0 | 0.0 | 3.2 | 0.10 | 0.10 | 0.10 | 79 | 1008.3 |
| 20260506162022 | 18 | 0 | 0.0 | 4.8 | 0.10 | 0.10 | 0.10 | 79 | 1008.5 |
| 20260506161539 | 19 | 0 | 0.0 | 4.8 | 0.08 | 0.08 | 0.08 | 78 | 1008.6 |
| 20260506161021 | 19 | 0 | 0.0 | 6.4 | 0.08 | 0.08 | 0.08 | 77 | 1008.6 |
| 20260506160521 | 19 | 0 | 0.0 | 9.7 | 0.05 | 0.05 | 0.05 | 76 | 1008.6 |
| 20260506160037 | 19 | 227 | 0.0 | 9.7 | 0.03 | 0.03 | 0.03 | 76 | 1008.8 |
| 20260506155521 | 19 | 191 | 3.2 | 11.3 | 0.00 | 0.00 | 0.00 | 74 | 1008.8 |
| 20260506155021 | 19 | 232 | 1.6 | 11.3 | 0.00 | 0.00 | 0.00 | 74 | 1008.8 |
| 20260506154539 | 20 | 192 | 1.6 | 11.3 | 0.00 | 0.00 | 0.00 | 73 | 1008.7 |
| 20260506154024 | 20 | 245 | 3.2 | 14.5 | 0.00 | 0.00 | 0.00 | 72 | 1008.7 |
| 20260506153521 | 20 | 219 | 1.6 | 14.5 | 0.00 | 0.00 | 0.00 | 72 | 1008.5 |
| 20260506153041 | 20 | 214 | 4.8 | 14.5 | 0.00 | 0.00 | 0.00 | 71 | 1008.7 |
| 20260506152521 | 20 | 213 | 3.2 | 14.5 | 0.00 | 0.00 | 0.00 | 71 | 1008.7 |
| 20260506152021 | 20 | 217 | 3.2 | 14.5 | 0.00 | 0.00 | 0.00 | 70 | 1008.7 |
| 20260506151541 | 20 | 159 | 3.2 | 17.7 | 0.00 | 0.00 | 0.00 | 69 | 1008.7 |
| 20260506151021 | 20 | 223 | 3.2 | 19.3 | 0.00 | 0.00 | 0.00 | 68 | 1008.4 |
| 20260506150521 | 20 | 209 | 4.8 | 19.3 | 0.00 | 0.00 | 0.00 | 68 | 1008.5 |
| 20260506150037 | 21 | 71 | 4.8 | 19.3 | 0.00 | 0.00 | 0.00 | 67 | 1008.5 |
| 20260506145522 | 21 | 252 | 3.2 | 17.7 | 0.00 | 0.00 | 0.00 | 67 | 1008.6 |
| 20260506145022 | 21 | 199 | 4.8 | 17.7 | 0.00 | 0.00 | 0.00 | 66 | 1008.7 |
| 20260506144558 | 21 | 34 | 3.2 | 20.9 | 0.00 | 0.00 | 0.00 | 66 | 1008.7 |
| 20260506144021 | 21 | 159 | 6.4 | 20.9 | 0.00 | 0.00 | 0.00 | 65 | 1008.7 |
| 20260506143521 | 21 | 310 | 6.4 | 16.1 | 0.00 | 0.00 | 0.00 | 65 | 1008.7 |
| 20260506143037 | 21 | 319 | 1.6 | 16.1 | 0.00 | 0.00 | 0.00 | 66 | 1008.7 |
| 20260506142522 | 21 | 248 | 4.8 | 16.1 | 0.00 | 0.00 | 0.00 | 66 | 1008.7 |
| 20260506142021 | 21 | 209 | 4.8 | 11.3 | 0.00 | 0.00 | 0.00 | 67 | 1008.7 |
| 20260506141543 | 21 | 211 | 1.6 | 16.1 | 0.00 | 0.00 | 0.00 | 68 | 1008.6 |
| 20260506141021 | 20 | 0 | 4.8 | 16.1 | 0.00 | 0.00 | 0.00 | 67 | 1008.5 |
| 20260506140521 | 20 | 217 | 1.6 | 17.7 | 0.00 | 0.00 | 0.00 | 67 | 1008.6 |
| 20260506140042 | 20 | 223 | 3.2 | 17.7 | 0.00 | 0.00 | 0.00 | 67 | 1008.6 |
| 20260506135520 | 20 | 277 | 3.2 | 17.7 | 0.00 | 0.00 | 0.00 | 67 | 1008.5 |
| 20260506135023 | 20 | 133 | 1.6 | 17.7 | 0.00 | 0.00 | 0.00 | 67 | 1008.6 |
| 20260506134540 | 21 | 208 | 3.2 | 17.7 | 0.00 | 0.00 | 0.00 | 67 | 1008.6 |
| 20260506134022 | 21 | 261 | 3.2 | 17.7 | 0.00 | 0.00 | 0.00 | 67 | 1008.6 |
| 20260506133520 | 20 | 0 | 1.6 | 12.9 | 0.00 | 0.00 | 0.00 | 68 | 1008.6 |
| 20260506133045 | 20 | 196 | 3.2 | 17.7 | 0.00 | 0.00 | 0.00 | 67 | 1008.8 |
| 20260506132524 | 20 | 211 | 4.8 | 17.7 | 0.00 | 0.00 | 0.00 | 68 | 1008.8 |
| 20260506132021 | 20 | 94 | 6.4 | 14.5 | 0.00 | 0.00 | 0.00 | 68 | 1008.8 |
| 20260506131538 | 20 | 148 | 3.2 | 17.7 | 0.00 | 0.00 | 0.00 | 68 | 1009.0 |
| 20260506131021 | 20 | 130 | 3.2 | 17.7 | 0.00 | 0.00 | 0.00 | 68 | 1008.8 |
| 20260506130522 | 20 | 192 | 4.8 | 17.7 | 0.00 | 0.00 | 0.00 | 68 | 1008.8 |
| 20260506130038 | 20 | 254 | 4.8 | 17.7 | 0.00 | 0.00 | 0.00 | 68 | 1009.0 |
| 20260506125521 | 20 | 260 | 6.4 | 17.7 | 0.00 | 0.00 | 0.00 | 68 | 1008.8 |
| 20260506125021 | 20 | 223 | 3.2 | 17.7 | 0.00 | 0.00 | 0.00 | 69 | 1008.8 |
| 20260506124539 | 20 | 231 | 3.2 | 12.9 | 0.00 | 0.00 | 0.00 | 69 | 1008.6 |
| 20260506124021 | 20 | 223 | 4.8 | 12.9 | 0.00 | 0.00 | 0.00 | 69 | 1008.5 |
| 20260506123524 | 20 | 244 | 3.2 | 12.9 | 0.00 | 0.00 | 0.00 | 70 | 1008.3 |
| 20260506123041 | 20 | 174 | 3.2 | 14.5 | 0.00 | 0.00 | 0.00 | 70 | 1008.4 |
| 20260506122522 | 19 | 0 | 3.2 | 14.5 | 0.00 | 0.00 | 0.00 | 71 | 1008.5 |
| 20260506122021 | 19 | 250 | 3.2 | 12.9 | 0.00 | 0.00 | 0.00 | 71 | 1008.7 |
| 20260506121540 | 19 | 212 | 1.6 | 19.3 | 0.00 | 0.00 | 0.00 | 72 | 1008.8 |
| 20260506121021 | 19 | 221 | 6.4 | 19.3 | 0.00 | 0.00 | 0.00 | 72 | 1008.7 |
| 20260506120521 | 19 | 211 | 3.2 | 14.5 | 0.00 | 0.00 | 0.00 | 72 | 1008.8 |
| 20260506120038 | 19 | 0 | 3.2 | 14.5 | 0.00 | 0.00 | 0.00 | 72 | 1008.7 |
| 20260506115523 | 19 | 0 | 3.2 | 14.5 | 0.00 | 0.00 | 0.00 | 72 | 1008.8 |
| 20260506115021 | 19 | 220 | 1.6 | 16.1 | 0.00 | 0.00 | 0.00 | 72 | 1008.8 |
| 20260506114537 | 19 | 0 | 4.8 | 16.1 | 0.00 | 0.00 | 0.00 | 72 | 1009.1 |
| 20260506114021 | 19 | 212 | 4.8 | 12.9 | 0.00 | 0.00 | 0.00 | 73 | 1009.1 |
| 20260506113521 | 18 | 171 | 3.2 | 12.9 | 0.00 | 0.00 | 0.00 | 73 | 1009.1 |
| 20260506113037 | 18 | 261 | 3.2 | 24.1 | 0.00 | 0.00 | 0.00 | 73 | 1008.8 |
| 20260506112521 | 18 | 200 | 3.2 | 24.1 | 0.00 | 0.00 | 0.00 | 74 | 1008.8 |
| 20260506112021 | 18 | 0 | 1.6 | 17.7 | 0.00 | 0.00 | 0.00 | 75 | 1008.8 |
| 20260506111535 | 18 | 219 | 3.2 | 17.7 | 0.00 | 0.00 | 0.00 | 75 | 1008.7 |
| 20260506111021 | 18 | 145 | 1.6 | 16.1 | 0.00 | 0.00 | 0.00 | 75 | 1008.9 |
| 20260506110521 | 18 | 219 | 1.6 | 8.0 | 0.00 | 0.00 | 0.00 | 76 | 1008.8 |
| 20260506110043 | 18 | 0 | 1.6 | 9.7 | 0.00 | 0.00 | 0.00 | 76 | 1008.8 |
| 20260506105521 | 18 | 195 | 1.6 | 9.7 | 0.00 | 0.00 | 0.00 | 76 | 1008.6 |
| 20260506105023 | 17 | 172 | 1.6 | 8.0 | 0.00 | 0.00 | 0.00 | 77 | 1008.5 |
| 20260506104542 | 17 | 194 | 1.6 | 12.9 | 0.00 | 0.00 | 0.00 | 77 | 1008.6 |
| 20260506104023 | 17 | 188 | 0.0 | 14.5 | 0.00 | 0.00 | 0.00 | 77 | 1008.6 |
| 20260506103523 | 17 | 0 | 0.0 | 14.5 | 0.00 | 0.00 | 0.00 | 77 | 1008.6 |
| 20260506103040 | 17 | 170 | 1.6 | 9.7 | 0.00 | 0.00 | 0.00 | 77 | 1008.6 |
| 20260506102522 | 17 | 0 | 0.0 | 6.4 | 0.00 | 0.00 | 0.00 | 76 | 1008.7 |
| 20260506102022 | 17 | 0 | 0.0 | 6.4 | 0.00 | 0.00 | 0.00 | 76 | 1008.7 |
| 20260506101537 | 17 | 0 | 0.0 | 6.4 | 0.00 | 0.00 | 0.00 | 76 | 1008.7 |
| 20260506101021 | 17 | 0 | 1.6 | 8.0 | 0.00 | 0.00 | 0.00 | 76 | 1008.6 |
| 20260506100524 | 17 | 0 | 1.6 | 8.0 | 0.00 | 0.00 | 0.00 | 76 | 1008.6 |
| 20260506100036 | 17 | 211 | 0.0 | 6.4 | 0.00 | 0.00 | 0.00 | 77 | 1008.5 |
| 20260506095521 | 17 | 216 | 0.0 | 8.0 | 0.00 | 0.00 | 0.00 | 77 | 1008.4 |
| 20260506095021 | 17 | 202 | 1.6 | 8.0 | 0.00 | 0.00 | 0.00 | 77 | 1008.4 |
| 20260506094536 | 17 | 223 | 0.0 | 9.7 | 0.00 | 0.00 | 0.00 | 77 | 1008.4 |
| 20260506094022 | 17 | 0 | 0.0 | 9.7 | 0.00 | 0.00 | 0.00 | 77 | 1008.4 |
| 20260506093522 | 17 | 242 | 0.0 | 11.3 | 0.00 | 0.00 | 0.00 | 77 | 1008.3 |
| 20260506093043 | 17 | 0 | 1.6 | 11.3 | 0.00 | 0.00 | 0.00 | 77 | 1008.5 |
| 20260506092521 | 17 | 0 | 1.6 | 8.0 | 0.00 | 0.00 | 0.00 | 77 | 1008.6 |
| 20260506092021 | 17 | 196 | 1.6 | 6.4 | 0.00 | 0.00 | 0.00 | 76 | 1008.5 |
| 20260506091543 | 17 | 0 | 0.0 | 6.4 | 0.00 | 0.00 | 0.00 | 76 | 1008.5 |
| 20260506091021 | 17 | 188 | 3.2 | 9.7 | 0.00 | 0.00 | 0.00 | 76 | 1008.7 |
| 20260506090521 | 17 | 223 | 0.0 | 9.7 | 0.00 | 0.00 | 0.00 | 76 | 1008.7 |
| 20260506090040 | 18 | 0 | 0.0 | 4.8 | 0.00 | 0.00 | 0.00 | 76 | 1008.7 |
| 20260506085521 | 18 | 217 | 0.0 | 6.4 | 0.00 | 0.00 | 0.00 | 76 | 1008.6 |
| 20260506085020 | 18 | 0 | 0.0 | 6.4 | 0.00 | 0.00 | 0.00 | 75 | 1008.7 |
| 20260506084538 | 18 | 0 | 0.0 | 6.4 | 0.00 | 0.00 | 0.00 | 75 | 1008.7 |
| 20260506084022 | 18 | 0 | 0.0 | 6.4 | 0.00 | 0.00 | 0.00 | 75 | 1008.8 |
| 20260506083522 | 18 | 0 | 0.0 | 6.4 | 0.00 | 0.00 | 0.00 | 75 | 1008.8 |
| 20260506083038 | 18 | 0 | 0.0 | 6.4 | 0.00 | 0.00 | 0.00 | 75 | 1008.8 |
| 20260506082521 | 18 | 0 | 0.0 | 11.3 | 0.00 | 0.00 | 0.00 | 75 | 1008.8 |
| 20260506082021 | 18 | 155 | 0.0 | 11.3 | 0.00 | 0.00 | 0.00 | 74 | 1008.7 |
| 20260506081544 | 18 | 0 | 0.0 | 11.3 | 0.00 | 0.00 | 0.00 | 74 | 1008.8 |
| 20260506081021 | 18 | 0 | 0.0 | 4.8 | 0.00 | 0.00 | 0.00 | 74 | 1008.9 |
| 20260506080521 | 18 | 0 | 0.0 | 4.8 | 0.00 | 0.00 | 0.00 | 74 | 1008.9 |
| 20260506073521 | 18 | 0 | 0.0 | 3.2 | 0.00 | 0.00 | 0.00 | 72 | 1008.9 |
| 20260506073059 | 18 | 0 | 0.0 | 3.2 | 0.00 | 0.00 | 0.00 | 72 | 1008.9 |
| 20260506072524 | 18 | 0 | 0.0 | 0.0 | 0.00 | 0.00 | 0.00 | 72 | 1008.9 |
| 20260506072022 | 18 | 0 | 0.0 | 4.8 | 0.00 | 0.00 | 0.00 | 71 | 1008.9 |
| 20260506071537 | 18 | 0 | 0.0 | 4.8 | 0.00 | 0.00 | 0.00 | 71 | 1009.0 |
| 20260506071021 | 18 | 211 | 0.0 | 3.2 | 0.00 | 0.00 | 0.00 | 71 | 1009.0 |
| 20260506070520 | 19 | 0 | 0.0 | 3.2 | 0.00 | 0.00 | 0.00 | 70 | 1009.0 |
| 20260506062021 | 19 | 0 | 0.0 | 4.8 | 0.00 | 0.00 | 0.00 | 68 | 1009.4 |
| 20260506061537 | 19 | 232 | 0.0 | 4.8 | 0.00 | 0.00 | 0.00 | 68 | 1009.4 |
| 20260506061023 | 19 | 0 | 0.0 | 4.8 | 0.00 | 0.00 | 0.00 | 68 | 1009.3 |
| 20260506060521 | 19 | 0 | 0.0 | 3.2 | 0.00 | 0.00 | 0.00 | 68 | 1009.3 |
| 20260506051021 | 20 | 0 | 1.6 | 8.0 | 0.00 | 0.00 | 0.00 | 65 | 1009.7 |
| 20260506050521 | 20 | 0 | 0.0 | 4.8 | 0.00 | 0.00 | 0.00 | 65 | 1009.7 |
| 20260506045021 | 20 | 242 | 0.0 | 8.0 | 0.00 | 0.00 | 0.00 | 64 | 1009.8 |
| 20260506044547 | 20 | 237 | 0.0 | 8.0 | 0.00 | 0.00 | 0.00 | 63 | 1009.9 |
| 20260506044020 | 20 | 189 | 0.0 | 1.6 | 0.00 | 0.00 | 0.00 | 63 | 1009.8 |
| 20260506043520 | 20 | 0 | 0.0 | 4.8 | 0.00 | 0.00 | 0.00 | 63 | 1009.8 |
| 20260506043037 | 20 | 0 | 0.0 | 4.8 | 0.00 | 0.00 | 0.00 | 63 | 1009.8 |
| 20260506042522 | 20 | 0 | 0.0 | 8.0 | 0.00 | 0.00 | 0.00 | 62 | 1009.8 |
| 20260506042021 | 20 | 0 | 0.0 | 8.0 | 0.00 | 0.00 | 0.00 | 62 | 1009.8 |
| 20260506041548 | 20 | 170 | 0.0 | 6.4 | 0.00 | 0.00 | 0.00 | 62 | 1009.8 |
| 20260506041025 | 21 | 0 | 0.0 | 6.4 | 0.00 | 0.00 | 0.00 | 61 | 1009.8 |
| 20260506040525 | 21 | 201 | 0.0 | 9.7 | 0.00 | 0.00 | 0.00 | 61 | 1009.8 |
| 20260506040044 | 21 | 0 | 0.0 | 9.7 | 0.00 | 0.00 | 0.00 | 61 | 1009.7 |
| 20260506035521 | 21 | 0 | 1.6 | 9.7 | 0.00 | 0.00 | 0.00 | 61 | 1009.8 |
| 20260506035021 | 21 | 0 | 1.6 | 8.0 | 0.00 | 0.00 | 0.00 | 60 | 1009.6 |
| 20260506034547 | 21 | 170 | 0.0 | 8.0 | 0.00 | 0.00 | 0.00 | 60 | 1009.6 |
| 20260506034021 | 21 | 0 | 0.0 | 17.7 | 0.00 | 0.00 | 0.00 | 60 | 1009.7 |
| 20260506033521 | 21 | 0 | 1.6 | 17.7 | 0.00 | 0.00 | 0.00 | 60 | 1009.6 |
| 20260506033042 | 21 | 219 | 1.6 | 8.0 | 0.00 | 0.00 | 0.00 | 59 | 1009.6 |
| 20260506032521 | 21 | 0 | 1.6 | 12.9 | 0.00 | 0.00 | 0.00 | 59 | 1009.6 |
| 20260506032022 | 21 | 0 | 1.6 | 12.9 | 0.00 | 0.00 | 0.00 | 59 | 1009.6 |
| 20260506031539 | 21 | 206 | 1.6 | 17.7 | 0.00 | 0.00 | 0.00 | 58 | 1009.6 |
| 20260506031021 | 21 | 257 | 3.2 | 17.7 | 0.00 | 0.00 | 0.00 | 58 | 1009.6 |
| 20260506030524 | 21 | 164 | 1.6 | 9.7 | 0.00 | 0.00 | 0.00 | 58 | 1009.6 |
| 20260506030037 | 21 | 196 | 0.0 | 9.7 | 0.00 | 0.00 | 0.00 | 58 | 1009.6 |
| 20260506025521 | 21 | 226 | 1.6 | 11.3 | 0.00 | 0.00 | 0.00 | 58 | 1009.5 |
| 20260506025020 | 21 | 58 | 1.6 | 12.9 | 0.00 | 0.00 | 0.00 | 58 | 1009.6 |
| 20260506024537 | 21 | 189 | 0.0 | 12.9 | 0.00 | 0.00 | 0.00 | 57 | 1009.5 |
| 20260506024023 | 21 | 0 | 1.6 | 8.0 | 0.00 | 0.00 | 0.00 | 57 | 1009.5 |
| 20260506023521 | 22 | 0 | 0.0 | 12.9 | 0.00 | 0.00 | 0.00 | 56 | 1009.5 |
| 20260506023044 | 22 | 157 | 1.6 | 12.9 | 0.00 | 0.00 | 0.00 | 57 | 1009.5 |
| 20260506022523 | 22 | 33 | 1.6 | 6.4 | 0.00 | 0.00 | 0.00 | 56 | 1009.4 |
| 20260506022022 | 22 | 46 | 0.0 | 4.8 | 0.00 | 0.00 | 0.00 | 56 | 1009.5 |
| 20260506021551 | 22 | 200 | 0.0 | 11.3 | 0.00 | 0.00 | 0.00 | 55 | 1009.4 |
| 20260506021022 | 22 | 226 | 1.6 | 11.3 | 0.00 | 0.00 | 0.00 | 55 | 1009.5 |
| 20260506020523 | 22 | 0 | 1.6 | 11.3 | 0.00 | 0.00 | 0.00 | 55 | 1009.5 |
| 20260506020042 | 22 | 179 | 1.6 | 11.3 | 0.00 | 0.00 | 0.00 | 54 | 1009.3 |
| 20260506015524 | 22 | 75 | 1.6 | 17.7 | 0.00 | 0.00 | 0.00 | 54 | 1009.4 |
| 20260506015021 | 22 | 360 | 1.6 | 17.7 | 0.00 | 0.00 | 0.00 | 53 | 1009.3 |
| 20260506014537 | 22 | 182 | 3.2 | 16.1 | 0.00 | 0.00 | 0.00 | 53 | 1009.2 |
| 20260506014020 | 23 | 207 | 1.6 | 20.9 | 0.00 | 0.00 | 0.00 | 52 | 1009.2 |
| 20260506013522 | 23 | 99 | 3.2 | 20.9 | 0.00 | 0.00 | 0.00 | 51 | 1009.1 |
| 20260506013044 | 23 | 198 | 4.8 | 20.9 | 0.00 | 0.00 | 0.00 | 50 | 1009.2 |
| 20260506012520 | 23 | 30 | 4.8 | 12.9 | 0.00 | 0.00 | 0.00 | 49 | 1009.2 |
| 20260506012023 | 23 | 236 | 1.6 | 14.5 | 0.00 | 0.00 | 0.00 | 48 | 1009.1 |
| 20260506011604 | 23 | 254 | 3.2 | 17.7 | 0.00 | 0.00 | 0.00 | 47 | 1008.9 |
| 20260506011024 | 23 | 221 | 4.8 | 17.7 | 0.00 | 0.00 | 0.00 | 46 | 1008.8 |
| 20260506010523 | 24 | 0 | 3.2 | 11.3 | 0.00 | 0.00 | 0.00 | 45 | 1008.7 |
| 20260506010044 | 24 | 213 | 1.6 | 12.9 | 0.00 | 0.00 | 0.00 | 44 | 1008.8 |
| 20260506005520 | 24 | 227 | 1.6 | 12.9 | 0.00 | 0.00 | 0.00 | 43 | 1008.6 |
| 20260506005021 | 25 | 0 | 1.6 | 12.9 | 0.00 | 0.00 | 0.00 | 43 | 1008.4 |
| 20260506004545 | 25 | 0 | 1.6 | 16.1 | 0.00 | 0.00 | 0.00 | 42 | 1008.3 |
| 20260506004021 | 25 | 0 | 1.6 | 16.1 | 0.00 | 0.00 | 0.00 | 42 | 1008.2 |
| 20260506003521 | 25 | 0 | 3.2 | 16.1 | 0.00 | 0.00 | 0.00 | 42 | 1008.2 |
| 20260506003042 | 25 | 261 | 3.2 | 16.1 | 0.00 | 0.00 | 0.00 | 42 | 1008.2 |
| 20260506002521 | 25 | 0 | 1.6 | 16.1 | 0.00 | 0.00 | 0.00 | 42 | 1008.1 |
| 20260506002022 | 25 | 193 | 3.2 | 11.3 | 0.00 | 0.00 | 0.00 | 42 | 1008.1 |
| 20260506001541 | 25 | 0 | 3.2 | 19.3 | 0.00 | 0.00 | 0.00 | 41 | 1008.0 |
| 20260506001021 | 25 | 214 | 4.8 | 19.3 | 0.00 | 0.00 | 0.00 | 41 | 1008.1 |
| 20260506000521 | 25 | 259 | 4.8 | 19.3 | 0.00 | 0.00 | 0.00 | 41 | 1008.0 |
| 20260506000045 | 25 | 202 | 3.2 | 14.5 | 0.00 | 0.00 | 0.00 | 40 | 1008.0 |
| 20260505235520 | 26 | 282 | 3.2 | 14.5 | 0.00 | 0.00 | 0.00 | 40 | 1008.0 |
| 20260505235020 | 26 | 258 | 3.2 | 12.9 | 0.00 | 0.00 | 0.00 | 39 | 1008.0 |
| 20260505234537 | 26 | 192 | 1.6 | 17.7 | 0.00 | 0.00 | 0.00 | 38 | 1007.9 |
| 20260505234024 | 26 | 206 | 4.8 | 17.7 | 0.00 | 0.00 | 0.00 | 37 | 1007.9 |
| 20260505233522 | 26 | 84 | 3.2 | 16.1 | 0.00 | 0.00 | 0.00 | 36 | 1007.8 |
| 20260505233045 | 26 | 0 | 6.4 | 16.1 | 0.00 | 0.00 | 0.00 | 35 | 1007.8 |
| 20260505232522 | 26 | 247 | 3.2 | 16.1 | 0.00 | 0.00 | 0.00 | 35 | 1007.7 |
| 20260505232021 | 26 | 224 | 6.4 | 20.9 | 0.00 | 0.00 | 0.00 | 34 | 1007.7 |
| 20260505231544 | 27 | 269 | 3.2 | 24.1 | 0.00 | 0.00 | 0.00 | 34 | 1007.5 |
| 20260505231021 | 27 | 173 | 4.8 | 24.1 | 0.00 | 0.00 | 0.00 | 34 | 1007.5 |
| 20260505230521 | 27 | 191 | 6.4 | 27.4 | 0.00 | 0.00 | 0.00 | 33 | 1007.5 |
| 20260505230038 | 27 | 209 | 4.8 | 29.0 | 0.00 | 0.00 | 0.00 | 34 | 1007.3 |
| 20260505225524 | 27 | 221 | 8.0 | 29.0 | 0.00 | 0.00 | 0.00 | 33 | 1007.3 |
| 20260505225021 | 27 | 233 | 8.0 | 20.9 | 0.00 | 0.00 | 0.00 | 33 | 1007.2 |
| 20260505224538 | 27 | 143 | 6.4 | 17.7 | 0.00 | 0.00 | 0.00 | 33 | 1007.2 |
| 20260505224020 | 27 | 0 | 3.2 | 16.1 | 0.00 | 0.00 | 0.00 | 33 | 1007.2 |
| 20260505223521 | 27 | 232 | 1.6 | 17.7 | 0.00 | 0.00 | 0.00 | 32 | 1007.1 |
| 20260505223037 | 27 | 166 | 4.8 | 22.5 | 0.00 | 0.00 | 0.00 | 32 | 1007.2 |
| 20260505222520 | 27 | 200 | 4.8 | 24.1 | 0.00 | 0.00 | 0.00 | 31 | 1007.2 |
| 20260505222023 | 27 | 221 | 4.8 | 27.4 | 0.00 | 0.00 | 0.00 | 31 | 1007.4 |
| 20260505221536 | 27 | 219 | 12.9 | 32.2 | 0.00 | 0.00 | 0.00 | 30 | 1007.2 |
| 20260505221021 | 27 | 181 | 6.4 | 32.2 | 0.00 | 0.00 | 0.00 | 30 | 1007.2 |
| 20260505220520 | 27 | 210 | 6.4 | 25.7 | 0.00 | 0.00 | 0.00 | 30 | 1007.3 |
| 20260505220052 | 27 | 230 | 6.4 | 29.0 | 0.00 | 0.00 | 0.00 | 29 | 1007.2 |
| 20260505215520 | 27 | 190 | 9.7 | 40.2 | 0.00 | 0.00 | 0.00 | 29 | 1007.3 |
| 20260505215020 | 28 | 307 | 9.7 | 40.2 | 0.00 | 0.00 | 0.00 | 28 | 1007.2 |
| 20260505214550 | 28 | 202 | 4.8 | 32.2 | 0.00 | 0.00 | 0.00 | 28 | 1007.0 |
| 20260505214020 | 28 | 239 | 3.2 | 22.5 | 0.00 | 0.00 | 0.00 | 28 | 1007.0 |
| 20260505213521 | 28 | 232 | 6.4 | 22.5 | 0.00 | 0.00 | 0.00 | 27 | 1006.8 |
| 20260505213039 | 28 | 140 | 6.4 | 22.5 | 0.00 | 0.00 | 0.00 | 27 | 1006.8 |
| 20260505212521 | 28 | 240 | 6.4 | 24.1 | 0.00 | 0.00 | 0.00 | 28 | 1006.8 |
| 20260505212021 | 29 | 207 | 8.0 | 27.4 | 0.00 | 0.00 | 0.00 | 27 | 1006.9 |
| 20260505211540 | 29 | 188 | 4.8 | 29.0 | 0.00 | 0.00 | 0.00 | 28 | 1006.9 |
| 20260505211020 | 29 | 269 | 11.3 | 30.6 | 0.00 | 0.00 | 0.00 | 28 | 1006.8 |
| 20260505210520 | 29 | 208 | 12.9 | 30.6 | 0.00 | 0.00 | 0.00 | 27 | 1006.9 |
| 20260505210045 | 29 | 205 | 9.7 | 33.8 | 0.00 | 0.00 | 0.00 | 28 | 1006.9 |
| 20260505205524 | 30 | 215 | 12.9 | 33.8 | 0.00 | 0.00 | 0.00 | 28 | 1006.8 |
| 20260505205022 | 30 | 236 | 6.4 | 24.1 | 0.00 | 0.00 | 0.00 | 29 | 1006.9 |
| 20260505204545 | 29 | 207 | 8.0 | 24.1 | 0.00 | 0.00 | 0.00 | 29 | 1006.8 |
| 20260505204021 | 29 | 209 | 8.0 | 19.3 | 0.00 | 0.00 | 0.00 | 30 | 1006.8 |
| 20260505203521 | 28 | 70 | 8.0 | 30.6 | 0.00 | 0.00 | 0.00 | 31 | 1006.8 |
| 20260505203043 | 29 | 205 | 14.5 | 30.6 | 0.00 | 0.00 | 0.00 | 30 | 1006.9 |
| 20260505202520 | 29 | 232 | 11.3 | 27.4 | 0.00 | 0.00 | 0.00 | 30 | 1007.1 |
| 20260505202022 | 29 | 225 | 8.0 | 29.0 | 0.00 | 0.00 | 0.00 | 31 | 1007.0 |
| 20260505201546 | 29 | 213 | 9.7 | 35.4 | 0.00 | 0.00 | 0.00 | 30 | 1007.0 |
| 20260505201022 | 29 | 217 | 4.8 | 35.4 | 0.00 | 0.00 | 0.00 | 30 | 1007.1 |
| 20260505200522 | 29 | 210 | 11.3 | 35.4 | 0.00 | 0.00 | 0.00 | 31 | 1007.0 |
| 20260505200040 | 29 | 274 | 8.0 | 41.8 | 0.00 | 0.00 | 0.00 | 31 | 1007.1 |
| 20260505195522 | 29 | 195 | 14.5 | 41.8 | 0.00 | 0.00 | 0.00 | 30 | 1007.1 |
| 20260505195022 | 29 | 207 | 9.7 | 29.0 | 0.00 | 0.00 | 0.00 | 31 | 1007.1 |
| 20260505194538 | 29 | 208 | 9.7 | 29.0 | 0.00 | 0.00 | 0.00 | 31 | 1007.1 |
| 20260505194027 | 29 | 197 | 8.0 | 30.6 | 0.00 | 0.00 | 0.00 | 31 | 1007.1 |
| 20260505193522 | 29 | 184 | 12.9 | 30.6 | 0.00 | 0.00 | 0.00 | 30 | 1007.2 |